| time (UTC) | temp C | wind direction | speed KPH | gust KPH | rain 1hr cm | rain 24hr cm | rain mn cm | humidity % | barometer mb |
| 20260905202646 | 32 | 15 | 1.6 | 8.0 | 0.00 | 0.00 | 2.62 | 64 | 1011.2 |
| 20260905202146 | 32 | 177 | 8.0 | 9.7 | 0.00 | 0.00 | 2.62 | 67 | 1011.2 |
| 20260905201646 | 32 | 79 | 4.8 | 14.5 | 0.00 | 0.00 | 2.62 | 65 | 1011.5 |
| 20260905201146 | 32 | 160 | 6.4 | 12.9 | 0.00 | 0.00 | 2.62 | 66 | 1011.2 |
| 20260905200646 | 32 | 167 | 8.0 | 11.3 | 0.00 | 0.00 | 2.62 | 66 | 1011.5 |
| 20260905200147 | 31 | 59 | 4.8 | 6.4 | 0.00 | 0.00 | 2.62 | 69 | 1011.2 |
| 20260905195646 | 31 | 173 | 8.0 | 11.3 | 0.00 | 0.00 | 2.62 | 69 | 1011.2 |
| 20260905195147 | 32 | 181 | 6.4 | 9.7 | 0.00 | 0.00 | 2.62 | 67 | 1011.5 |
| 20260905194647 | 32 | 176 | 4.8 | 6.4 | 0.00 | 0.00 | 2.62 | 68 | 1011.9 |
| 20260905194146 | 31 | 107 | 1.6 | 4.8 | 0.00 | 0.00 | 2.62 | 70 | 1011.9 |
| 20260905193646 | 31 | 160 | 6.4 | 11.3 | 0.00 | 0.00 | 2.62 | 71 | 1011.5 |
| 20260905193147 | 31 | 116 | 3.2 | 8.0 | 0.00 | 0.00 | 2.62 | 70 | 1011.9 |
| 20260905192648 | 31 | 311 | 3.2 | 8.0 | 0.00 | 0.00 | 2.62 | 71 | 1011.9 |
| 20260905192146 | 31 | 344 | 3.2 | 6.4 | 0.00 | 0.00 | 2.62 | 70 | 1012.2 |
| 20260905191646 | 31 | 356 | 4.8 | 11.3 | 0.00 | 0.00 | 2.62 | 70 | 1012.2 |
| 20260905191146 | 31 | 327 | 3.2 | 8.0 | 0.00 | 0.00 | 2.62 | 69 | 1012.2 |
| 20260905190647 | 32 | 59 | 4.8 | 11.3 | 0.00 | 0.00 | 2.62 | 68 | 1012.2 |
| 20260905190146 | 32 | 232 | 4.8 | 8.0 | 0.00 | 0.00 | 2.62 | 68 | 1012.2 |
| 20260905185647 | 32 | 169 | 4.8 | 9.7 | 0.00 | 0.00 | 2.62 | 69 | 1011.9 |
| 20260905185147 | 31 | 44 | 0.0 | 6.4 | 0.00 | 0.00 | 2.62 | 67 | 1012.2 |
| 20260905184646 | 32 | 322 | 4.8 | 6.4 | 0.00 | 0.00 | 2.62 | 65 | 1012.5 |
| 20260905184147 | 32 | 42 | 0.0 | 9.7 | 0.00 | 0.00 | 2.62 | 65 | 1012.9 |
| 20260905183647 | 31 | 314 | 3.2 | 8.0 | 0.00 | 0.00 | 2.62 | 70 | 1012.9 |
| 20260905183147 | 31 | 357 | 1.6 | 8.0 | 0.00 | 0.00 | 2.62 | 70 | 1012.9 |
| 20260905182646 | 31 | 354 | 4.8 | 9.7 | 0.00 | 0.00 | 2.62 | 74 | 1012.9 |
| 20260905182146 | 31 | 287 | 4.8 | 8.0 | 0.00 | 0.00 | 2.62 | 74 | 1013.2 |
| 20260905181646 | 30 | 269 | 4.8 | 4.8 | 0.00 | 0.00 | 2.62 | 75 | 1012.9 |
| 20260905181146 | 30 | 240 | 4.8 | 8.0 | 0.00 | 0.00 | 2.62 | 75 | 1013.2 |
| 20260905180646 | 30 | 252 | 1.6 | 6.4 | 0.00 | 0.00 | 2.62 | 77 | 1013.2 |
| 20260905180147 | 30 | 199 | 8.0 | 9.7 | 0.00 | 0.00 | 2.62 | 78 | 1013.2 |
| 20260905175646 | 30 | 242 | 3.2 | 4.8 | 0.00 | 0.00 | 2.62 | 82 | 1013.2 |
| 20260905175146 | 29 | 261 | 6.4 | 8.0 | 0.00 | 0.00 | 2.62 | 82 | 1013.2 |
| 20260905174647 | 28 | 205 | 6.4 | 8.0 | 0.00 | 0.00 | 2.62 | 84 | 1013.2 |
| 20260905174147 | 28 | 209 | 8.0 | 8.0 | 0.00 | 0.00 | 2.62 | 86 | 1013.2 |
| 20260905173654 | 28 | 157 | 0.0 | 6.4 | 0.00 | 0.00 | 2.62 | 89 | 1013.2 |
| 20260905173147 | 27 | 223 | 3.2 | 8.0 | 0.00 | 0.00 | 2.62 | 91 | 1013.2 |
| 20260905172646 | 27 | 251 | 6.4 | 6.4 | 0.00 | 0.00 | 2.62 | 91 | 1013.5 |
| 20260905172146 | 27 | 285 | 4.8 | 6.4 | 0.00 | 0.00 | 2.62 | 91 | 1013.5 |
| 20260905171647 | 27 | 291 | 4.8 | 8.0 | 0.00 | 0.00 | 2.62 | 93 | 1013.5 |
| 20260905171147 | 27 | 335 | 3.2 | 6.4 | 0.00 | 0.00 | 2.62 | 95 | 1013.5 |
| 20260905170647 | 26 | 355 | 0.0 | 4.8 | 0.00 | 0.00 | 2.62 | 97 | 1013.5 |
| 20260905170146 | 26 | 315 | 0.0 | 4.8 | 0.00 | 0.00 | 2.62 | 99 | 1013.5 |
| 20260905165646 | 26 | 355 | 0.0 | 4.8 | 0.05 | 0.00 | 2.62 | 99 | 1013.9 |
| 20260905165146 | 26 | 339 | 3.2 | 4.8 | 0.23 | 0.00 | 2.62 | 99 | 1013.9 |
| 20260905164647 | 25 | 268 | 6.4 | 8.0 | 0.53 | 0.00 | 2.62 | 99 | 1013.9 |
| 20260905164147 | 25 | 262 | 3.2 | 6.4 | 0.84 | 0.00 | 2.59 | 98 | 1013.9 |
| 20260905163646 | 25 | 82 | 0.0 | 11.3 | 1.75 | 0.00 | 2.51 | 99 | 1013.9 |
| 20260905163146 | 25 | 58 | 8.0 | 8.0 | 3.12 | 0.00 | 2.41 | 98 | 1014.2 |
| 20260905162646 | 25 | 133 | 4.8 | 8.0 | 2.95 | 0.00 | 2.16 | 98 | 1014.2 |
| 20260905162146 | 25 | 176 | 6.4 | 11.3 | 4.32 | 0.00 | 1.91 | 98 | 1014.2 |
| 20260905161646 | 25 | 163 | 8.0 | 9.7 | 5.16 | 0.00 | 1.50 | 97 | 1014.2 |
| 20260905161146 | 25 | 186 | 9.7 | 14.5 | 3.78 | 0.00 | 1.12 | 97 | 1014.2 |
| 20260905160646 | 25 | 201 | 14.5 | 24.1 | 2.29 | 0.00 | 0.71 | 96 | 1014.2 |
| 20260905160146 | 25 | 216 | 9.7 | 16.1 | 1.19 | 0.00 | 0.46 | 94 | 1014.2 |
| 20260905155647 | 26 | 173 | 14.5 | 16.1 | 0.84 | 0.00 | 0.33 | 95 | 1013.9 |
| 20260905155148 | 26 | 138 | 6.4 | 14.5 | 1.27 | 0.00 | 0.25 | 95 | 1014.2 |
| 20260905154646 | 26 | 141 | 9.7 | 9.7 | 0.79 | 0.00 | 0.15 | 92 | 1013.9 |
| 20260905154147 | 26 | 193 | 6.4 | 14.5 | 0.18 | 0.00 | 0.03 | 91 | 1013.5 |
| 20260905153646 | 27 | 153 | 6.4 | 9.7 | 0.05 | 0.00 | 0.00 | 89 | 1013.5 |
| 20260905153147 | 27 | 129 | 3.2 | 11.3 | 0.00 | 0.00 | 0.00 | 88 | 1013.9 |
| 20260905152646 | 27 | 57 | 4.8 | 9.7 | 0.00 | 0.00 | 0.00 | 89 | 1013.5 |
| 20260905152147 | 27 | 175 | 4.8 | 11.3 | 0.00 | 0.00 | 0.00 | 88 | 1013.5 |
| 20260905151646 | 27 | 180 | 8.0 | 11.3 | 0.00 | 0.00 | 0.00 | 86 | 1013.5 |
| 20260905151147 | 29 | 186 | 8.0 | 8.0 | 0.00 | 0.00 | 0.00 | 84 | 1013.5 |
| 20260905150646 | 29 | 194 | 1.6 | 4.8 | 0.00 | 0.00 | 0.00 | 79 | 1013.5 |
| 20260905150147 | 29 | 269 | 4.8 | 8.0 | 0.00 | 0.00 | 0.00 | 80 | 1013.5 |
| 20260905145646 | 30 | 332 | 6.4 | 9.7 | 0.00 | 0.00 | 0.00 | 78 | 1013.5 |
| 20260905145147 | 30 | 358 | 4.8 | 8.0 | 0.00 | 0.00 | 0.00 | 78 | 1013.5 |
| 20260905144647 | 29 | 58 | 6.4 | 8.0 | 0.00 | 0.00 | 0.00 | 78 | 1013.2 |
| 20260905144146 | 30 | 21 | 3.2 | 4.8 | 0.00 | 0.00 | 0.00 | 80 | 1013.5 |
| 20260905143646 | 29 | 359 | 4.8 | 4.8 | 0.00 | 0.00 | 0.00 | 81 | 1013.5 |
| 20260905143146 | 28 | 330 | 4.8 | 6.4 | 0.00 | 0.00 | 0.00 | 82 | 1013.5 |
| 20260905142647 | 28 | 58 | 0.0 | 8.0 | 0.00 | 0.00 | 0.00 | 83 | 1013.5 |
| 20260905142147 | 28 | 333 | 3.2 | 9.7 | 0.00 | 0.00 | 0.00 | 84 | 1013.5 |
| 20260905141647 | 28 | 350 | 6.4 | 8.0 | 0.00 | 0.00 | 0.00 | 84 | 1013.5 |
| 20260905141147 | 29 | 305 | 9.7 | 12.9 | 0.00 | 0.00 | 0.00 | 83 | 1013.5 |
| 20260905140646 | 29 | 356 | 8.0 | 9.7 | 0.00 | 0.00 | 0.00 | 82 | 1013.5 |
| 20260905140146 | 29 | 7 | 3.2 | 8.0 | 0.00 | 0.00 | 0.00 | 83 | 1013.5 |
| 20260905135646 | 29 | 311 | 3.2 | 9.7 | 0.00 | 0.00 | 0.00 | 83 | 1013.5 |
| 20260905135146 | 28 | 24 | 8.0 | 8.0 | 0.00 | 0.00 | 0.00 | 85 | 1013.5 |
| 20260905134648 | 28 | 288 | 11.3 | 12.9 | 0.00 | 0.00 | 0.00 | 85 | 1013.5 |
| 20260905134147 | 28 | 360 | 8.0 | 9.7 | 0.00 | 0.00 | 0.00 | 86 | 1013.5 |
| 20260905133647 | 28 | 339 | 6.4 | 12.9 | 0.00 | 0.00 | 0.00 | 85 | 1013.2 |
| 20260905133146 | 28 | 305 | 4.8 | 9.7 | 0.00 | 0.00 | 0.00 | 83 | 1013.5 |
| 20260905132647 | 28 | 48 | 0.0 | 6.4 | 0.00 | 0.00 | 0.00 | 85 | 1013.5 |
| 20260905132146 | 28 | 296 | 6.4 | 8.0 | 0.00 | 0.00 | 0.00 | 87 | 1013.5 |
| 20260905131647 | 28 | 294 | 4.8 | 6.4 | 0.00 | 0.00 | 0.00 | 88 | 1013.2 |
| 20260905131147 | 27 | 275 | 4.8 | 6.4 | 0.00 | 0.00 | 0.00 | 87 | 1013.5 |
| 20260905130646 | 27 | 314 | 3.2 | 4.8 | 0.00 | 0.00 | 0.00 | 87 | 1013.5 |
| 20260905130146 | 27 | 337 | 4.8 | 6.4 | 0.00 | 0.00 | 0.00 | 87 | 1013.5 |
| 20260905125647 | 27 | 338 | 1.6 | 4.8 | 0.00 | 0.00 | 0.00 | 88 | 1013.5 |
| 20260905125147 | 27 | 105 | 1.6 | 6.4 | 0.00 | 0.00 | 0.00 | 91 | 1013.5 |
| 20260905124647 | 26 | 281 | 1.6 | 4.8 | 0.00 | 0.00 | 0.00 | 92 | 1013.2 |
| 20260905124146 | 26 | 213 | 3.2 | 6.4 | 0.00 | 0.00 | 0.00 | 93 | 1013.2 |
| 20260905123646 | 26 | 342 | 1.6 | 4.8 | 0.00 | 0.00 | 0.00 | 93 | 1013.5 |
| 20260905123146 | 26 | 351 | 1.6 | 6.4 | 0.00 | 0.00 | 0.00 | 94 | 1013.2 |
| 20260905122647 | 26 | 341 | 3.2 | 4.8 | 0.00 | 0.00 | 0.00 | 95 | 1013.5 |
| 20260905122146 | 25 | 350 | 3.2 | 4.8 | 0.00 | 0.00 | 0.00 | 95 | 1013.2 |
| 20260905121646 | 25 | 307 | 0.0 | 4.8 | 0.00 | 0.00 | 0.00 | 95 | 1013.5 |
| 20260905121146 | 25 | 346 | 4.8 | 4.8 | 0.00 | 0.00 | 0.00 | 95 | 1013.5 |
| 20260905120646 | 25 | 333 | 4.8 | 4.8 | 0.00 | 0.00 | 0.00 | 94 | 1013.2 |
| 20260905120146 | 25 | 171 | 1.6 | 4.8 | 0.00 | 0.00 | 0.00 | 94 | 1013.2 |
| 20260905115646 | 25 | 292 | 3.2 | 6.4 | 0.00 | 0.00 | 0.00 | 94 | 1013.2 |
| 20260905115147 | 25 | 119 | 3.2 | 4.8 | 0.00 | 0.00 | 0.00 | 94 | 1013.2 |
| 20260905114646 | 25 | 211 | 3.2 | 6.4 | 0.00 | 0.00 | 0.00 | 94 | 1013.2 |
| 20260905114146 | 25 | 220 | 1.6 | 6.4 | 0.00 | 0.00 | 0.00 | 94 | 1013.2 |
| 20260905113647 | 25 | 167 | 1.6 | 4.8 | 0.00 | 0.00 | 0.00 | 94 | 1013.2 |
| 20260905113146 | 25 | 234 | 3.2 | 4.8 | 0.00 | 0.00 | 0.00 | 94 | 1012.9 |
| 20260905112646 | 25 | 175 | 4.8 | 6.4 | 0.00 | 0.00 | 0.00 | 94 | 1012.9 |
| 20260905112146 | 25 | 230 | 3.2 | 4.8 | 0.00 | 0.00 | 0.00 | 93 | 1012.5 |
| 20260905111650 | 25 | 253 | 3.2 | 6.4 | 0.00 | 0.00 | 0.00 | 93 | 1012.5 |
| 20260905111146 | 25 | 274 | 0.0 | 4.8 | 0.00 | 0.00 | 0.00 | 94 | 1012.5 |
| 20260905110646 | 25 | 237 | 3.2 | 4.8 | 0.00 | 0.00 | 0.00 | 94 | 1012.2 |
| 20260905110147 | 25 | 23 | 1.6 | 4.8 | 0.00 | 0.00 | 0.00 | 94 | 1012.5 |
| 20260905105646 | 25 | 189 | 3.2 | 4.8 | 0.00 | 0.00 | 0.00 | 94 | 1012.2 |
| 20260905105146 | 25 | 282 | 3.2 | 6.4 | 0.00 | 0.00 | 0.00 | 94 | 1012.2 |
| 20260905104646 | 25 | 220 | 0.0 | 4.8 | 0.00 | 0.00 | 0.00 | 94 | 1012.2 |
| 20260905104146 | 25 | 81 | 0.0 | 0.0 | 0.00 | 0.00 | 0.00 | 94 | 1012.2 |
| 20260905103647 | 25 | 89 | 0.0 | 0.0 | 0.00 | 0.00 | 0.00 | 94 | 1012.2 |
| 20260905103147 | 25 | 360 | 0.0 | 1.6 | 0.00 | 0.00 | 0.00 | 93 | 1012.2 |
| 20260905102646 | 26 | 320 | 1.6 | 1.6 | 0.00 | 0.00 | 0.00 | 93 | 1012.2 |
| 20260905102146 | 26 | 284 | 3.2 | 3.2 | 0.00 | 0.00 | 0.00 | 93 | 1012.5 |
| 20260905101648 | 26 | 238 | 1.6 | 1.6 | 0.00 | 0.00 | 0.00 | 93 | 1012.5 |
| 20260905101146 | 26 | 212 | 0.0 | 1.6 | 0.00 | 0.00 | 0.00 | 93 | 1012.2 |
| 20260905100646 | 26 | 200 | 0.0 | 3.2 | 0.00 | 0.00 | 0.00 | 92 | 1012.5 |
| 20260905100146 | 26 | 205 | 0.0 | 3.2 | 0.00 | 0.00 | 0.00 | 92 | 1012.5 |
| 20260905095646 | 26 | 283 | 3.2 | 4.8 | 0.00 | 0.00 | 0.00 | 92 | 1012.5 |
| 20260905095147 | 26 | 308 | 3.2 | 3.2 | 0.00 | 0.00 | 0.00 | 92 | 1012.5 |
| 20260905094646 | 26 | 308 | 1.6 | 3.2 | 0.00 | 0.00 | 0.00 | 92 | 1012.5 |
| 20260905094146 | 26 | 20 | 0.0 | 3.2 | 0.00 | 0.00 | 0.00 | 93 | 1012.5 |
| 20260905093647 | 26 | 311 | 0.0 | 3.2 | 0.00 | 0.00 | 0.00 | 93 | 1012.5 |
| 20260905093146 | 26 | 309 | 0.0 | 1.6 | 0.00 | 0.00 | 0.00 | 93 | 1012.5 |
| 20260905092647 | 26 | 248 | 0.0 | 1.6 | 0.00 | 0.00 | 0.00 | 93 | 1012.5 |
| 20260905092147 | 26 | 141 | 0.0 | 0.0 | 0.00 | 0.00 | 0.00 | 92 | 1012.5 |
| 20260905091647 | 26 | 279 | 0.0 | 3.2 | 0.00 | 0.00 | 0.00 | 93 | 1012.5 |
| 20260905091146 | 26 | 333 | 0.0 | 3.2 | 0.00 | 0.00 | 0.00 | 92 | 1012.5 |
| 20260905090648 | 26 | 294 | 1.6 | 3.2 | 0.00 | 0.00 | 0.00 | 92 | 1012.5 |
| 20260905090147 | 26 | 276 | 0.0 | 3.2 | 0.00 | 0.00 | 0.00 | 93 | 1012.5 |
| 20260905085646 | 26 | 216 | 3.2 | 4.8 | 0.00 | 0.00 | 0.00 | 93 | 1012.2 |
| 20260905085146 | 26 | 197 | 3.2 | 3.2 | 0.00 | 0.00 | 0.00 | 93 | 1012.5 |
| 20260905084646 | 26 | 227 | 3.2 | 3.2 | 0.00 | 0.00 | 0.00 | 93 | 1012.5 |
| 20260905084147 | 26 | 256 | 0.0 | 3.2 | 0.00 | 0.00 | 0.00 | 93 | 1012.2 |
| 20260905083646 | 26 | 284 | 0.0 | 0.0 | 0.00 | 0.00 | 0.00 | 92 | 1012.5 |
| 20260905083146 | 26 | 322 | 0.0 | 1.6 | 0.00 | 0.00 | 0.00 | 93 | 1012.5 |
| 20260905082647 | 26 | 284 | 1.6 | 3.2 | 0.00 | 0.00 | 0.00 | 93 | 1012.5 |
| 20260905082146 | 26 | 287 | 1.6 | 3.2 | 0.00 | 0.00 | 0.00 | 93 | 1012.2 |
| 20260905081646 | 26 | 234 | 0.0 | 1.6 | 0.00 | 0.00 | 0.00 | 93 | 1012.2 |
| 20260905081146 | 26 | 207 | 0.0 | 1.6 | 0.00 | 0.00 | 0.00 | 93 | 1012.2 |
| 20260905080647 | 26 | 294 | 3.2 | 3.2 | 0.00 | 0.00 | 0.00 | 93 | 1012.2 |
| 20260905080147 | 26 | 275 | 3.2 | 3.2 | 0.00 | 0.00 | 0.00 | 93 | 1011.9 |
| 20260905075647 | 26 | 230 | 0.0 | 3.2 | 0.00 | 0.00 | 0.00 | 93 | 1012.2 |
| 20260905075147 | 26 | 221 | 1.6 | 3.2 | 0.00 | 0.00 | 0.00 | 93 | 1012.2 |
| 20260905074647 | 26 | 236 | 1.6 | 4.8 | 0.00 | 0.00 | 0.00 | 93 | 1012.2 |
| 20260905074146 | 26 | 326 | 0.0 | 3.2 | 0.00 | 0.00 | 0.00 | 93 | 1012.5 |
| 20260905073646 | 26 | 282 | 0.0 | 3.2 | 0.00 | 0.00 | 0.00 | 93 | 1012.2 |
| 20260905073146 | 25 | 224 | 0.0 | 3.2 | 0.00 | 0.00 | 0.00 | 93 | 1012.2 |
| 20260905072646 | 26 | 230 | 3.2 | 4.8 | 0.00 | 0.00 | 0.00 | 93 | 1012.2 |
| 20260905071742 | 26 | 278 | 1.6 | 6.4 | 0.00 | 0.00 | 0.00 | 93 | 1012.2 |
| 20260905071146 | 26 | 235 | 3.2 | 4.8 | 0.00 | 0.00 | 0.00 | 94 | 1012.5 |
| 20260905070646 | 26 | 277 | 1.6 | 6.4 | 0.00 | 0.00 | 0.00 | 94 | 1012.2 |
| 20260905070146 | 26 | 284 | 0.0 | 4.8 | 0.00 | 0.00 | 0.00 | 94 | 1012.2 |
| 20260905065646 | 26 | 208 | 3.2 | 4.8 | 0.00 | 0.00 | 0.00 | 94 | 1012.2 |
| 20260905065146 | 26 | 218 | 3.2 | 6.4 | 0.00 | 0.00 | 0.00 | 94 | 1011.9 |
| 20260905064647 | 26 | 238 | 4.8 | 8.0 | 0.00 | 0.00 | 0.00 | 94 | 1012.2 |
| 20260905064147 | 26 | 190 | 8.0 | 8.0 | 0.00 | 0.00 | 0.00 | 93 | 1012.2 |
| 20260905063647 | 26 | 175 | 4.8 | 6.4 | 0.00 | 0.00 | 0.00 | 93 | 1011.9 |
| 20260905063146 | 26 | 196 | 4.8 | 4.8 | 0.00 | 0.00 | 0.00 | 93 | 1011.9 |
| 20260905062646 | 26 | 207 | 3.2 | 6.4 | 0.00 | 0.00 | 0.00 | 93 | 1012.2 |
| 20260905062146 | 26 | 232 | 3.2 | 4.8 | 0.00 | 0.00 | 0.00 | 93 | 1012.2 |
| 20260905061648 | 26 | 223 | 3.2 | 4.8 | 0.00 | 0.00 | 0.00 | 93 | 1012.2 |
| 20260905061146 | 26 | 240 | 3.2 | 4.8 | 0.00 | 0.00 | 0.00 | 92 | 1012.5 |
| 20260905060647 | 26 | 272 | 3.2 | 3.2 | 0.00 | 0.00 | 0.00 | 93 | 1012.5 |
| 20260905060147 | 26 | 280 | 1.6 | 3.2 | 0.00 | 0.00 | 0.00 | 93 | 1012.2 |
| 20260905055646 | 26 | 330 | 0.0 | 3.2 | 0.00 | 0.00 | 0.00 | 93 | 1012.5 |
| 20260905055147 | 26 | 304 | 0.0 | 3.2 | 0.00 | 0.00 | 0.00 | 93 | 1012.2 |
| 20260905054646 | 26 | 232 | 0.0 | 1.6 | 0.00 | 0.00 | 0.00 | 93 | 1012.2 |
| 20260905054146 | 26 | 224 | 0.0 | 3.2 | 0.00 | 0.00 | 0.00 | 93 | 1012.2 |
| 20260905053646 | 26 | 180 | 3.2 | 3.2 | 0.00 | 0.00 | 0.00 | 93 | 1012.2 |
| 20260905053146 | 26 | 213 | 1.6 | 4.8 | 0.00 | 0.00 | 0.00 | 93 | 1012.5 |
| 20260905052646 | 26 | 185 | 3.2 | 4.8 | 0.00 | 0.00 | 0.00 | 93 | 1012.9 |
| 20260905052147 | 26 | 188 | 3.2 | 4.8 | 0.00 | 0.00 | 0.00 | 93 | 1012.5 |
| 20260905051646 | 26 | 193 | 3.2 | 3.2 | 0.00 | 0.00 | 0.00 | 93 | 1012.9 |
| 20260905051146 | 26 | 160 | 3.2 | 4.8 | 0.00 | 0.00 | 0.00 | 94 | 1012.9 |
| 20260905050202 | 26 | 207 | 3.2 | 4.8 | 0.00 | 0.00 | 0.00 | 92 | 1012.9 |
| 20260905045646 | 26 | 208 | 3.2 | 4.8 | 0.00 | 0.00 | 0.91 | 92 | 1012.9 |
| 20260905045147 | 26 | 201 | 1.6 | 4.8 | 0.00 | 0.00 | 0.91 | 92 | 1012.9 |
| 20260905044646 | 26 | 225 | 0.0 | 4.8 | 0.00 | 0.00 | 0.91 | 92 | 1012.5 |
| 20260905044147 | 26 | 221 | 1.6 | 3.2 | 0.00 | 0.00 | 0.91 | 92 | 1012.9 |
| 20260905043646 | 26 | 223 | 1.6 | 4.8 | 0.00 | 0.00 | 0.91 | 92 | 1012.5 |
| 20260905043146 | 26 | 198 | 4.8 | 4.8 | 0.00 | 0.00 | 0.91 | 92 | 1012.5 |
| 20260905042647 | 27 | 214 | 1.6 | 3.2 | 0.00 | 0.00 | 0.91 | 91 | 1012.5 |
| 20260905042146 | 27 | 241 | 3.2 | 4.8 | 0.00 | 0.00 | 0.91 | 91 | 1012.5 |
| 20260905041646 | 27 | 190 | 1.6 | 3.2 | 0.00 | 0.00 | 0.91 | 91 | 1012.9 |
| 20260905041147 | 27 | 174 | 0.0 | 4.8 | 0.00 | 0.00 | 0.91 | 90 | 1012.9 |
| 20260905040646 | 27 | 125 | 0.0 | 3.2 | 0.00 | 0.00 | 0.91 | 90 | 1012.9 |
| 20260905040146 | 27 | 39 | 1.6 | 4.8 | 0.00 | 0.00 | 0.91 | 89 | 1012.9 |
| 20260905035646 | 27 | 360 | 0.0 | 4.8 | 0.00 | 0.00 | 0.91 | 88 | 1012.9 |
| 20260905035147 | 27 | 129 | 0.0 | 1.6 | 0.00 | 0.00 | 0.91 | 88 | 1012.9 |
| 20260905034647 | 27 | 154 | 0.0 | 0.0 | 0.00 | 0.00 | 0.91 | 88 | 1012.9 |
| 20260905034146 | 27 | 151 | 1.6 | 3.2 | 0.00 | 0.00 | 0.91 | 88 | 1013.2 |
| 20260905033646 | 27 | 176 | 3.2 | 3.2 | 0.00 | 0.00 | 0.91 | 88 | 1013.2 |
| 20260905033148 | 27 | 171 | 1.6 | 3.2 | 0.00 | 0.00 | 0.91 | 88 | 1012.9 |
| 20260905032647 | 27 | 149 | 0.0 | 4.8 | 0.00 | 0.00 | 0.91 | 88 | 1012.9 |
| 20260905032146 | 27 | 189 | 3.2 | 4.8 | 0.00 | 0.00 | 0.91 | 88 | 1012.9 |
| 20260905031646 | 27 | 180 | 4.8 | 6.4 | 0.00 | 0.00 | 0.91 | 87 | 1013.2 |
| 20260905031147 | 27 | 164 | 1.6 | 8.0 | 0.00 | 0.00 | 0.91 | 87 | 1013.5 |
| 20260905030646 | 27 | 174 | 8.0 | 9.7 | 0.00 | 0.00 | 0.91 | 87 | 1013.5 |
| 20260905030147 | 27 | 209 | 3.2 | 4.8 | 0.00 | 0.00 | 0.91 | 88 | 1013.5 |
| 20260905025647 | 27 | 194 | 3.2 | 4.8 | 0.00 | 0.00 | 0.91 | 87 | 1013.5 |
| 20260905025146 | 27 | 176 | 3.2 | 4.8 | 0.00 | 0.00 | 0.91 | 87 | 1013.5 |
| 20260905024646 | 27 | 174 | 4.8 | 4.8 | 0.00 | 0.00 | 0.91 | 87 | 1013.5 |
| 20260905024147 | 27 | 165 | 3.2 | 4.8 | 0.00 | 0.00 | 0.91 | 88 | 1013.5 |
| 20260905023647 | 27 | 180 | 3.2 | 4.8 | 0.00 | 0.00 | 0.91 | 88 | 1013.5 |
| 20260905023146 | 27 | 175 | 1.6 | 6.4 | 0.00 | 0.00 | 0.91 | 87 | 1013.5 |
| 20260905022646 | 27 | 240 | 1.6 | 3.2 | 0.00 | 0.00 | 0.91 | 88 | 1013.2 |
| 20260905022146 | 27 | 211 | 1.6 | 3.2 | 0.00 | 0.00 | 0.91 | 88 | 1013.5 |
| 20260905021646 | 27 | 183 | 1.6 | 6.4 | 0.00 | 0.00 | 0.91 | 87 | 1013.2 |
| 20260905021146 | 28 | 187 | 3.2 | 6.4 | 0.00 | 0.00 | 0.91 | 87 | 1013.2 |
| 20260905020646 | 28 | 212 | 3.2 | 6.4 | 0.00 | 0.00 | 0.91 | 86 | 1013.2 |
| 20260905020146 | 28 | 201 | 1.6 | 4.8 | 0.00 | 0.00 | 0.91 | 85 | 1013.2 |
| 20260905015647 | 28 | 214 | 3.2 | 4.8 | 0.00 | 0.00 | 0.91 | 84 | 1013.2 |
| 20260905015146 | 28 | 187 | 3.2 | 3.2 | 0.00 | 0.00 | 0.91 | 84 | 1012.9 |
| 20260905014646 | 28 | 171 | 3.2 | 3.2 | 0.00 | 0.00 | 0.91 | 84 | 1012.9 |
| 20260905014146 | 28 | 180 | 1.6 | 3.2 | 0.00 | 0.00 | 0.91 | 83 | 1013.2 |
| 20260905013646 | 28 | 117 | 0.0 | 3.2 | 0.00 | 0.00 | 0.91 | 83 | 1012.9 |
| 20260905013146 | 28 | 162 | 1.6 | 3.2 | 0.00 | 0.00 | 0.91 | 82 | 1012.9 |
| 20260905012646 | 28 | 121 | 1.6 | 4.8 | 0.00 | 0.00 | 0.91 | 82 | 1012.9 |
| 20260905012146 | 28 | 179 | 3.2 | 3.2 | 0.00 | 0.00 | 0.91 | 81 | 1012.9 |
| 20260905011646 | 28 | 60 | 0.0 | 3.2 | 0.00 | 0.00 | 0.91 | 82 | 1012.9 |
| 20260905011146 | 28 | 22 | 0.0 | 1.6 | 0.00 | 0.00 | 0.91 | 82 | 1012.9 |
| 20260905010646 | 28 | 174 | 3.2 | 4.8 | 0.00 | 0.00 | 0.91 | 82 | 1012.9 |
| 20260905010146 | 28 | 181 | 3.2 | 3.2 | 0.00 | 0.00 | 0.91 | 82 | 1012.9 |
| 20260905005646 | 28 | 187 | 1.6 | 4.8 | 0.00 | 0.00 | 0.91 | 82 | 1012.9 |
| 20260905005147 | 28 | 189 | 3.2 | 4.8 | 0.00 | 0.00 | 0.91 | 82 | 1012.9 |
| 20260905004647 | 28 | 206 | 3.2 | 4.8 | 0.00 | 0.00 | 0.91 | 82 | 1012.9 |
| 20260905004147 | 28 | 186 | 1.6 | 4.8 | 0.00 | 0.00 | 0.91 | 83 | 1013.2 |
| 20260905003646 | 28 | 165 | 3.2 | 6.4 | 0.00 | 0.00 | 0.91 | 82 | 1012.9 |
| 20260905003146 | 28 | 156 | 4.8 | 4.8 | 0.00 | 0.00 | 0.91 | 81 | 1012.5 |
| 20260905002647 | 28 | 179 | 4.8 | 6.4 | 0.00 | 0.00 | 0.91 | 81 | 1012.9 |
| 20260905002146 | 28 | 172 | 3.2 | 8.0 | 0.00 | 0.00 | 0.91 | 81 | 1012.9 |
| 20260905001646 | 28 | 174 | 3.2 | 8.0 | 0.00 | 0.00 | 0.91 | 81 | 1012.9 |
| 20260905001146 | 28 | 145 | 3.2 | 8.0 | 0.00 | 0.00 | 0.91 | 81 | 1012.9 |
| 20260905000646 | 28 | 154 | 4.8 | 6.4 | 0.00 | 0.00 | 0.91 | 80 | 1012.9 |
| 20260905000147 | 28 | 165 | 4.8 | 9.7 | 0.00 | 0.00 | 0.91 | 81 | 1012.9 |
| 20260904235646 | 29 | 165 | 6.4 | 6.4 | 0.00 | 0.00 | 0.91 | 80 | 1012.9 |
| 20260904235146 | 30 | 157 | 1.6 | 6.4 | 0.00 | 0.00 | 0.91 | 78 | 1012.9 |
| 20260904234646 | 30 | 37 | 3.2 | 4.8 | 0.00 | 0.00 | 0.91 | 76 | 1012.9 |
| 20260904234146 | 30 | 334 | 3.2 | 4.8 | 0.00 | 0.00 | 0.91 | 76 | 1012.9 |
| 20260904233646 | 30 | 3 | 4.8 | 8.0 | 0.00 | 0.00 | 0.91 | 75 | 1012.5 |
| 20260904233146 | 30 | 351 | 3.2 | 6.4 | 0.00 | 0.00 | 0.91 | 75 | 1012.5 |
| 20260904232647 | 30 | 312 | 4.8 | 8.0 | 0.00 | 0.00 | 0.91 | 75 | 1012.5 |
| 20260904232146 | 30 | 286 | 6.4 | 6.4 | 0.00 | 0.00 | 0.91 | 73 | 1012.5 |
| 20260904231647 | 30 | 5 | 1.6 | 6.4 | 0.00 | 0.00 | 0.91 | 73 | 1012.5 |
| 20260904231146 | 30 | 354 | 3.2 | 8.0 | 0.00 | 0.00 | 0.91 | 73 | 1012.5 |
| 20260904230647 | 30 | 352 | 3.2 | 8.0 | 0.00 | 0.00 | 0.91 | 73 | 1012.5 |
| 20260904230147 | 31 | 347 | 6.4 | 11.3 | 0.00 | 0.00 | 0.91 | 71 | 1012.9 |
| 20260904225647 | 31 | 39 | 3.2 | 8.0 | 0.00 | 0.00 | 0.91 | 71 | 1012.5 |
| 20260904225146 | 31 | 321 | 3.2 | 8.0 | 0.00 | 0.00 | 0.91 | 70 | 1012.5 |
| 20260904224646 | 31 | 307 | 4.8 | 6.4 | 0.00 | 0.00 | 0.91 | 70 | 1012.5 |
| 20260904224147 | 31 | 76 | 3.2 | 9.7 | 0.00 | 0.00 | 0.91 | 72 | 1012.2 |
| 20260904223646 | 30 | 25 | 6.4 | 14.5 | 0.00 | 0.00 | 0.91 | 72 | 1012.5 |
| 20260904223147 | 30 | 353 | 6.4 | 11.3 | 0.00 | 0.00 | 0.91 | 73 | 1012.5 |
| 20260904222647 | 31 | 356 | 8.0 | 11.3 | 0.00 | 0.00 | 0.91 | 71 | 1012.5 |
| 20260904222147 | 31 | 347 | 4.8 | 9.7 | 0.00 | 0.00 | 0.91 | 69 | 1012.2 |
| 20260904221646 | 31 | 355 | 4.8 | 11.3 | 0.00 | 0.00 | 0.91 | 71 | 1012.2 |
| 20260904221146 | 30 | 332 | 6.4 | 9.7 | 0.00 | 0.00 | 0.91 | 73 | 1012.2 |
| 20260904220647 | 30 | 25 | 8.0 | 14.5 | 0.00 | 0.00 | 0.91 | 73 | 1012.2 |
| 20260904220146 | 30 | 343 | 8.0 | 11.3 | 0.00 | 0.00 | 0.91 | 72 | 1012.2 |
| 20260904215647 | 31 | 18 | 4.8 | 12.9 | 0.00 | 0.00 | 0.91 | 71 | 1012.2 |
| 20260904215146 | 30 | 335 | 6.4 | 14.5 | 0.00 | 0.00 | 0.91 | 72 | 1012.5 |
| 20260904214647 | 30 | 312 | 9.7 | 14.5 | 0.00 | 0.00 | 0.91 | 73 | 1012.5 |
| 20260904214146 | 30 | 45 | 4.8 | 11.3 | 0.00 | 0.00 | 0.91 | 72 | 1012.5 |
| 20260904213646 | 30 | 45 | 6.4 | 16.1 | 0.00 | 0.00 | 0.91 | 71 | 1012.2 |
| 20260904213146 | 30 | 337 | 4.8 | 11.3 | 0.00 | 0.00 | 0.91 | 70 | 1012.2 |
| 20260904212646 | 31 | 358 | 8.0 | 12.9 | 0.00 | 0.00 | 0.91 | 70 | 1012.5 |
| 20260904212146 | 31 | 340 | 8.0 | 12.9 | 0.00 | 0.00 | 0.91 | 70 | 1012.5 |
| 20260904211647 | 31 | 35 | 4.8 | 11.3 | 0.00 | 0.00 | 0.91 | 68 | 1012.5 |
| 20260904211147 | 31 | 3 | 4.8 | 16.1 | 0.00 | 0.00 | 0.91 | 68 | 1012.5 |
| 20260904210646 | 31 | 345 | 8.0 | 12.9 | 0.00 | 0.00 | 0.91 | 69 | 1012.9 |
| 20260904210146 | 31 | 354 | 6.4 | 11.3 | 0.00 | 0.00 | 0.91 | 71 | 1012.5 |
| 20260904205647 | 30 | 353 | 4.8 | 14.5 | 0.00 | 0.00 | 0.91 | 71 | 1012.2 |
| 20260904205147 | 31 | 342 | 6.4 | 12.9 | 0.00 | 0.00 | 0.91 | 72 | 1012.2 |
| 20260904204646 | 31 | 336 | 6.4 | 11.3 | 0.00 | 0.00 | 0.91 | 72 | 1012.5 |
| 20260904204146 | 30 | 348 | 6.4 | 11.3 | 0.00 | 0.00 | 0.91 | 71 | 1012.5 |
| 20260904203646 | 30 | 354 | 8.0 | 14.5 | 0.00 | 0.00 | 0.91 | 71 | 1012.5 |
| 20260904203146 | 30 | 39 | 8.0 | 12.9 | 0.00 | 0.00 | 0.91 | 73 | 1012.5 |